TimeEST,TemperatureF,Dew PointF,Humidity,Sea Level PressureIn,VisibilityMPH,Wind Direction,Wind SpeedMPH,Gust SpeedMPH,PrecipitationIn,Events,Conditions,WindDirDegrees,DateUTC
12:53 AM,44.1,43.0,96,29.84,7.0,West,4.6,-,N/A,,Mostly Cloudy,280,2013-02-24 05:53:00
1:53 AM,46.0,41.0,83,29.87,10.0,West,8.1,-,N/A,,Mostly Cloudy,270,2013-02-24 06:53:00
2:53 AM,42.1,36.0,79,29.87,10.0,West,6.9,-,N/A,,Scattered Clouds,260,2013-02-24 07:53:00
3:53 AM,39.0,33.1,79,29.87,10.0,West,8.1,-,N/A,,Clear,260,2013-02-24 08:53:00
4:53 AM,37.0,30.9,79,29.90,10.0,WSW,8.1,-,N/A,,Clear,240,2013-02-24 09:53:00
5:53 AM,37.9,30.9,76,29.93,10.0,West,9.2,-,N/A,,Clear,280,2013-02-24 10:53:00
6:53 AM,35.1,30.0,82,29.97,10.0,WSW,5.8,-,N/A,,Clear,250,2013-02-24 11:53:00
7:53 AM,36.0,30.0,79,29.99,10.0,SW,4.6,-,N/A,,Clear,230,2013-02-24 12:53:00
8:53 AM,41.0,28.9,62,30.01,10.0,WSW,6.9,-,N/A,,Clear,250,2013-02-24 13:53:00
9:53 AM,43.0,26.1,51,30.01,10.0,West,6.9,-,N/A,,Partly Cloudy,270,2013-02-24 14:53:00
10:53 AM,45.0,26.1,48,30.01,10.0,West,11.5,-,N/A,,Partly Cloudy,260,2013-02-24 15:53:00
11:53 AM,46.0,25.0,44,30.01,10.0,Variable,3.5,-,N/A,,Clear,0,2013-02-24 16:53:00
12:53 PM,50.0,26.1,39,30.00,10.0,West,13.8,19.6,N/A,,Clear,280,2013-02-24 17:53:00
1:53 PM,52.0,24.1,34,29.99,10.0,West,12.7,16.1,N/A,,Clear,270,2013-02-24 18:53:00
2:53 PM,52.0,23.0,32,29.98,10.0,WNW,9.2,-,N/A,,Clear,300,2013-02-24 19:53:00
3:53 PM,53.1,19.9,27,29.98,10.0,West,11.5,-,N/A,,Clear,280,2013-02-24 20:53:00
4:53 PM,52.0,19.4,28,29.99,10.0,West,9.2,-,N/A,,Clear,260,2013-02-24 21:53:00
5:53 PM,50.0,19.9,31,29.99,10.0,West,9.2,-,N/A,,Clear,260,2013-02-24 22:53:00
6:53 PM,44.1,19.9,38,30.02,10.0,West,5.8,-,N/A,,Clear,270,2013-02-24 23:53:00
7:53 PM,41.0,21.0,45,30.05,10.0,North,5.8,-,N/A,,Clear,360,2013-02-25 00:53:00
8:53 PM,42.1,21.0,43,30.06,10.0,Calm,Calm,-,N/A,,Clear,0,2013-02-25 01:53:00
9:53 PM,37.0,21.9,54,30.06,10.0,Calm,Calm,-,N/A,,Clear,0,2013-02-25 02:53:00
10:53 PM,34.0,23.0,64,30.05,10.0,Calm,Calm,-,N/A,,Clear,0,2013-02-25 03:53:00
11:53 PM,30.0,23.0,75,30.04,10.0,Calm,Calm,-,N/A,,Clear,0,2013-02-25 04:53:00